Date String (YYYY-MM-DD hh:mm:ss) UTC,Instrument flags,Ambient pressure (hPa),Sample flow (lpm),Bypass flow (lpm),Sample temperature (°C),Ambient temperature (°C),ASC tube jacket temperature (°C),LED temperature (°C),Box temperature (°C),Sample RH (%),Span deviation,Mass concentration (μg/m³),Mass concentration (μg/m³),Mass concentration (μg/m³)
DateTimeUTC,F1_M11,P_M11,Q1_M11,Q2_M11,T1_M11,T2_M11,T3_M11,T4_M11,T5_M11,U1_M11,ZSPAN_M11,X0_M11,X2_M11,X1_M11
2021-12-16 18:00:00,,0821.1,4.99,0.00,24.4,23.6,00.0,33.3,26.2,07.5,0000.0,0014.05,0003.84,0002.03
2021-12-16 18:01:00,,0821.1,5.01,0.00,24.4,23.7,00.0,33.3,26.2,07.5,0000.0,0013.93,0003.86,0002.03
2021-12-16 18:02:00,,0821.1,4.99,0.00,24.4,23.7,00.0,33.3,26.3,07.6,0000.0,0014.76,0003.92,0002.02
2021-12-16 18:03:00,,0821.2,5.01,0.00,24.4,23.7,00.0,33.3,26.3,07.6,0000.0,0014.84,0003.95,0002.01
2021-12-16 18:04:00,,0821.1,4.99,0.00,24.4,23.7,00.0,33.3,26.3,07.6,0000.0,0013.88,0003.96,0002.01
2021-12-16 18:05:00,,0821.1,5.02,0.00,24.4,23.7,00.0,33.3,26.3,07.6,0000.0,0013.89,0003.91,0002.00
2021-12-16 18:06:00,,0821.1,4.99,0.00,24.4,23.7,00.0,33.3,26.3,07.5,0000.0,0013.67,0003.92,0002.02
2021-12-16 18:07:00,,0821.0,5.01,0.00,24.5,23.8,00.0,33.4,26.3,07.5,0000.0,0014.35,0003.99,0002.04
2021-12-16 18:08:00,,0821.0,5.00,0.00,24.5,23.8,00.0,33.4,26.4,07.5,0000.0,0015.07,0003.99,0002.05
2021-12-16 18:09:00,,0821.0,4.99,0.00,24.5,23.8,00.0,33.4,26.4,07.4,0000.0,0015.61,0004.05,0002.04
2021-12-16 18:10:00,,0820.9,5.00,0.00,24.5,23.8,00.0,33.4,26.4,07.4,0000.0,0015.92,0004.07,0002.05
2021-12-16 18:11:00,,0821.0,5.00,0.00,24.5,23.8,00.0,33.4,26.4,07.5,0000.0,0015.15,0004.11,0002.06
2021-12-16 18:12:00,,0821.0,4.99,0.00,24.5,23.8,00.0,33.4,26.4,07.5,0000.0,0015.20,0004.14,0002.06
2021-12-16 18:13:00,,0821.0,5.01,0.00,24.5,23.8,00.0,33.4,26.4,07.4,0000.0,0014.34,0004.09,0002.08
2021-12-16 18:14:00,,0820.9,4.99,0.00,24.6,23.9,00.0,33.5,26.4,07.5,0000.0,0014.04,0004.08,0002.09
2021-12-16 18:15:00,,0820.9,5.00,0.00,24.6,23.9,00.0,33.5,26.4,07.5,0000.0,0014.34,0004.08,0002.10
2021-12-16 18:16:00,,0820.9,5.02,0.00,24.6,23.9,00.0,33.5,26.5,07.5,0000.0,0014.07,0004.10,0002.12
2021-12-16 18:17:00,,0820.9,4.98,0.00,24.6,23.9,00.0,33.5,26.5,07.5,0000.0,0013.79,0004.11,0002.13
2021-12-16 18:18:00,,0821.0,5.01,0.00,24.6,23.9,00.0,33.5,26.5,07.5,0000.0,0014.07,0004.07,0002.14
2021-12-16 18:19:00,,0821.0,4.99,0.00,24.6,23.9,00.0,33.5,26.5,07.4,0000.0,0013.11,0004.06,0002.14
2021-12-16 18:20:00,,0820.9,5.00,0.00,24.7,23.9,00.0,33.6,26.5,07.5,0000.0,0013.82,0004.07,0002.14
2021-12-16 18:21:00,,0820.9,5.01,0.00,24.7,24.0,00.0,33.6,26.5,07.4,0000.0,0014.39,0004.07,0002.16
2021-12-16 18:22:00,,0820.9,4.99,0.00,24.7,24.0,00.0,33.6,26.6,07.4,0000.0,0015.72,0004.08,0002.18
2021-12-16 18:23:00,,0820.7,5.01,0.00,24.7,24.0,00.0,33.6,26.6,07.4,0000.0,0017.34,0004.07,0002.19
2021-12-16 18:24:00,,0820.7,5.00,0.00,24.7,24.0,00.0,33.6,26.6,07.4,0000.0,0018.50,0004.07,0002.20
2021-12-16 18:25:00,,0820.7,4.99,0.00,24.8,24.0,00.0,33.6,26.6,07.4,0000.0,0019.32,0004.09,0002.20
2021-12-16 18:26:00,,0820.8,5.00,0.00,24.8,24.1,00.0,33.7,26.6,07.4,0000.0,0019.39,0004.07,0002.20
2021-12-16 18:27:00,,0820.9,5.00,0.00,24.8,24.1,00.0,33.7,26.7,07.4,0000.0,0019.78,0004.05,0002.21
2021-12-16 18:28:00,,0820.9,5.01,0.00,24.8,24.1,00.0,33.7,26.7,07.4,0000.0,0020.24,0004.05,0002.21
2021-12-16 18:29:00,,0820.9,4.98,0.00,24.8,24.1,00.0,33.7,26.7,07.4,0000.0,0019.93,0004.10,0002.22
2021-12-16 18:30:00,,0820.6,5.02,0.00,24.9,24.1,00.0,33.7,26.8,07.4,0000.0,0020.73,0004.14,0002.22
2021-12-16 18:31:00,,0820.6,4.99,0.00,24.9,24.2,00.0,33.7,26.8,07.3,0000.0,0020.64,0004.11,0002.23
2021-12-16 18:32:00,,0820.5,5.01,0.00,24.9,24.2,00.0,33.7,26.8,07.4,0000.0,0019.69,0004.07,0002.24
2021-12-16 18:33:00,,0820.6,5.00,0.00,24.9,24.2,00.0,33.8,26.8,07.4,0000.0,0018.40,0004.07,0002.24
2021-12-16 18:34:00,,0820.6,4.99,0.00,24.9,24.2,00.0,33.8,26.8,07.3,0000.0,0017.07,0004.04,0002.24
2021-12-16 18:35:00,,0820.6,5.00,0.00,25.0,24.2,00.0,33.8,26.8,07.3,0000.0,0015.58,0003.98,0002.24
2021-12-16 18:36:00,,0820.6,4.99,0.00,25.0,24.3,00.0,33.8,26.8,07.3,0000.0,0015.51,0003.95,0002.24
2021-12-16 18:37:00,,0820.6,5.01,0.00,25.0,24.3,00.0,33.8,26.8,07.4,0000.0,0016.20,0003.92,0002.25
2021-12-16 18:38:00,,0820.6,4.98,0.00,25.0,24.3,00.0,33.9,26.9,07.4,0000.0,0016.44,0003.94,0002.25
2021-12-16 18:39:00,,0820.4,5.01,0.00,25.0,24.3,00.0,33.9,26.9,07.4,0000.0,0016.22,0003.95,0002.25
2021-12-16 18:40:00,,0820.3,5.00,0.00,25.0,24.3,00.0,33.9,26.9,07.4,0000.0,0016.82,0003.92,0002.27
2021-12-16 18:41:00,,0820.4,5.00,0.00,25.0,24.3,00.0,33.9,26.9,07.3,0000.0,0015.91,0003.87,0002.27
2021-12-16 18:42:00,,0820.3,4.98,0.00,25.0,24.3,00.0,33.9,26.9,07.4,0000.0,0015.41,0003.85,0002.26
2021-12-16 18:43:00,,0820.3,5.01,0.00,25.1,24.4,00.0,33.9,26.9,07.4,0000.0,0016.00,0003.93,0002.27
2021-12-16 18:44:00,,0820.3,5.00,0.00,25.1,24.4,00.0,34.0,26.9,07.4,0000.0,0015.93,0003.94,0002.27
2021-12-16 18:45:00,,0820.3,4.98,0.00,25.1,24.4,00.0,34.0,26.9,07.4,0000.0,0015.84,0003.90,0002.27
2021-12-16 18:46:00,,0820.3,5.01,0.00,25.1,24.4,00.0,34.0,27.0,07.4,0000.0,0016.71,0003.96,0002.29
2021-12-16 18:47:00,,0820.3,5.00,0.00,25.1,24.4,00.0,34.0,27.0,07.4,0000.0,0016.28,0004.04,0002.30
2021-12-16 18:48:00,,0820.2,5.00,0.00,25.1,24.4,00.0,34.0,27.0,07.4,0000.0,0017.00,0004.09,0002.31
2021-12-16 18:49:00,,0820.2,5.01,0.00,25.2,24.4,00.0,34.0,27.1,07.3,0000.0,0016.40,0004.15,0002.33
2021-12-16 18:50:00,,0820.2,4.99,0.00,25.2,24.5,00.0,34.1,27.1,07.3,0000.0,0016.70,0004.18,0002.34
2021-12-16 18:51:00,,0820.2,5.00,0.00,25.2,24.5,00.0,34.1,27.1,07.3,0000.0,0015.87,0004.18,0002.34
2021-12-16 18:52:00,,0820.2,5.00,0.00,25.2,24.5,00.0,34.1,27.1,07.3,0000.0,0016.76,0004.18,0002.33
2021-12-16 18:53:00,,0820.2,5.00,0.00,25.2,24.5,00.0,34.1,27.1,07.3,0000.0,0017.31,0004.24,0002.35
2021-12-16 18:54:00,,0820.2,4.99,0.00,25.2,24.5,00.0,34.1,27.1,07.3,0000.0,0016.80,0004.22,0002.36
2021-12-16 18:55:00,,0820.1,5.00,0.00,25.3,24.5,00.0,34.1,27.1,07.3,0000.0,0017.31,0004.18,0002.37
2021-12-16 18:56:00,,0820.0,5.00,0.00,25.3,24.6,00.0,34.2,27.2,07.3,0000.0,0017.47,0004.22,0002.39
2021-12-16 18:57:00,,0820.0,5.01,0.00,25.3,24.6,00.0,34.2,27.1,07.2,0000.0,0016.44,0004.21,0002.38
2021-12-16 18:58:00,,0819.9,4.99,0.00,25.3,24.6,00.0,34.2,27.2,07.2,0000.0,0017.35,0004.17,0002.37
2021-12-16 18:59:00,,0819.9,5.00,0.00,25.3,24.6,00.0,34.2,27.2,07.2,0000.0,0016.25,0004.16,0002.36
